Lapse_Rate
5.9 5.9 6.0 6.0 6.1 6.3 6.5 6.6 6.7 6.7 6.6 6.5 6.5 6.4 6.4 6.4 6.2 6.1 6.0 5.8 5.6 5.6 5.6 5.3 5.0 4.7 4.5 4.4 4.3 4.2 3.9 4.0 3.5 3.5 3.7 4.3 4.1 3.5 3.8 3.9 3.9 4.1 4.2 4.4 5.0
5.8 5.9 6.1 6.3 6.5 6.7 6.9 7.1 7.2 7.3 7.2 7.0 6.8 6.8 6.8 6.6 6.5 6.3 6.1 5.8 5.5 5.6 5.5 5.2 5.1 4.6 4.3 4.3 4.2 4.0 4.1 3.8 3.6 3.5 3.9 3.8 3.6 3.6 4.1 4.0 3.8 3.9 3.9 4.0 4.2
6.1 6.3 6.3 6.4 6.4 6.6 6.8 7.1 7.3 7.4 7.4 7.6 7.5 7.4 7.2 6.9 6.7 6.4 6.2 6.1 5.9 5.8 5.7 5.3 5.0 4.6 4.5 4.2 4.2 4.1 4.3 3.7 3.5 3.2 3.4 3.4 3.6 3.8 3.8 3.9 3.9 4.5 4.6 4.5 4.7
5.8 5.8 6.0 6.2 6.4 6.7 7.0 7.2 7.4 7.5 7.5 7.6 7.5 7.4 7.3 7.2 6.5 6.2 6.2 6.2 6.1 5.7 5.4 5.2 5.0 4.8 4.5 4.1 4.1 4.1 4.2 4.0 3.9 3.6 3.8 3.9 4.0 4.1 3.8 3.7 3.8 3.4 3.4 3.7 3.9
5.7 5.9 6.1 6.3 6.4 6.7 6.9 7.1 7.3 7.3 7.4 7.4 7.4 7.2 7.1 6.9 6.6 6.2 6.0 5.9 5.9 5.6 5.4 5.2 5.0 4.7 4.6 4.4 4.3 4.2 4.0 3.8 3.7 3.6 3.6 4.0 4.2 4.1 3.6 3.4 3.4 3.1 3.1 3.5 3.3
5.9 6.1 6.3 6.4 6.3 6.6 6.8 7.0 7.2 7.2 7.2 7.2 7.2 7.1 6.8 6.5 6.1 6.1 6.0 5.8 5.5 5.3 5.1 5.0 4.8 4.5 4.3 4.2 4.2 4.2 4.1 3.8 3.4 3.2 3.3 3.5 4.5 3.8 3.6 3.4 3.6 3.2 3.9 3.6 2.7
6.0 6.1 6.3 6.3 6.4 6.6 6.8 7.0 7.1 7.2 7.1 6.9 7.1 6.8 6.5 6.2 6.1 6.0 5.8 5.4 5.2 5.1 5.0 4.8 4.6 4.4 4.0 3.9 3.9 3.9 3.8 3.5 3.5 3.3 3.2 3.0 4.3 4.0 3.5 3.3 3.0 2.8 3.0 2.5 2.0
6.2 6.2 6.3 6.3 6.4 6.5 6.8 6.9 7.0 7.1 7.0 6.8 6.8 6.4 6.0 6.0 5.9 5.7 5.5 5.2 5.1 5.1 4.9 4.7 4.6 4.5 4.2 3.9 3.8 3.7 3.6 3.7 3.5 3.2 3.2 2.8 4.3 4.5 3.5 2.8 2.8 2.4 2.2 2.3 2.5
6.2 6.2 6.2 6.3 6.5 6.5 6.7 6.8 6.9 7.0 6.8 6.6 6.5 6.2 6.0 5.9 5.8 5.7 5.5 5.2 5.0 4.9 4.6 4.3 4.4 4.3 4.1 3.9 3.7 3.5 3.3 3.2 3.6 3.2 2.9 2.5 3.5 4.3 3.8 3.0 2.8 2.5 2.6 2.6 2.7
6.3 6.2 6.3 6.4 6.4 6.5 6.6 6.7 6.8 7.0 6.7 6.3 6.0 5.7 5.7 5.7 5.5 5.4 5.3 5.1 4.8 4.6 4.4 4.2 4.1 3.9 3.9 3.8 3.4 3.0 3.0 3.2 3.1 3.3 3.1 3.6 3.6 4.1 3.8 3.1 2.8 2.8 2.9 2.8 2.9
6.3 6.3 6.3 6.3 6.4 6.4 6.6 6.7 6.6 6.6 6.6 6.3 5.8 5.5 5.4 5.5 5.6 5.4 5.0 4.8 4.5 4.5 4.5 4.5 4.1 3.5 3.3 3.3 3.1 2.9 3.0 2.9 3.3 3.1 2.6 3.3 3.3 4.4 4.1 3.6 2.8 2.9 2.9 2.9 3.2
6.1 6.2 6.2 6.3 6.2 6.3 6.5 6.5 6.5 6.2 6.2 5.8 5.6 5.5 5.6 5.6 5.3 5.1 4.8 4.6 4.3 4.1 4.2 4.1 4.1 3.7 3.4 3.1 3.1 3.0 2.9 3.1 3.2 3.1 2.7 2.9 3.1 4.0 3.8 3.3 3.1 3.1 3.1 3.3 3.5
6.0 6.1 6.0 6.2 6.4 6.3 6.3 6.5 6.5 6.3 6.0 5.6 5.4 5.3 5.2 5.2 5.1 4.8 4.6 4.4 4.3 4.2 3.9 3.9 3.7 3.4 3.3 3.1 3.1 3.1 2.9 3.0 2.6 2.6 3.3 2.5 2.9 3.9 3.9 3.2 3.3 3.4 3.2 3.1 3.8
6.1 6.1 6.0 6.1 6.2 6.3 6.3 6.4 6.4 6.2 5.6 5.2 5.2 5.0 5.0 4.8 4.7 4.8 4.6 4.4 4.0 4.1 4.0 3.9 3.9 3.6 3.3 3.2 3.1 3.2 3.2 2.9 2.8 2.6 2.2 2.4 1.1 4.0 3.7 3.9 3.5 3.5 3.2 3.4 4.1
6.3 6.1 6.0 5.8 6.2 6.1 6.1 6.3 6.3 6.1 3.9 5.0 5.1 5.1 4.9 4.9 4.8 4.4 4.4 4.3 4.2 3.8 4.0 3.9 3.6 3.5 3.6 3.6 3.3 3.2 3.3 3.1 2.9 2.5 2.0 2.7 1.8 3.2 3.5 3.7 3.3 3.3 3.2 3.8 4.1
6.1 6.1 5.9 6.0 6.1 6.1 5.9 5.9 6.0 5.9 3.3 5.1 4.7 4.6 4.7 4.8 5.0 4.7 4.6 4.1 4.1 4.2 3.9 4.3 3.8 3.6 3.7 3.5 3.3 3.1 3.2 3.3 2.8 2.5 0.5 2.1 2.1 3.0 3.6 3.3 3.7 3.4 3.5 4.1 4.5
6.2 6.1 6.1 6.2 6.0 6.1 6.1 5.7 5.7 5.9 5.4 4.8 4.7 4.7 4.5 4.4 4.6 4.6 4.5 4.4 4.1 3.7 3.9 4.0 4.0 4.2 4.0 3.7 3.5 3.2 3.2 1.7 1.5 0.5 0.5 2.7 2.4 3.7 3.9 3.8 3.8 3.7 4.1 4.4 4.5
6.2 6.2 6.3 6.2 6.2 6.0 5.9 5.9 5.5 5.4 5.4 5.2 4.9 4.7 4.6 4.4 4.1 4.1 3.9 4.0 3.8 3.5 3.2 3.2 3.8 3.8 3.7 3.5 3.2 3.1 3.1 2.8 1.4 0.2 1.5 2.8 2.4 3.6 4.1 4.0 4.0 4.1 4.2 4.3 4.6
6.2 6.3 6.3 6.4 6.2 6.0 5.6 5.6 5.7 5.0 4.9 5.0 4.8 4.7 4.6 4.5 4.3 4.1 4.2 3.9 3.9 3.9 3.7 3.6 3.6 3.8 3.6 3.4 3.2 3.0 3.2 3.0 2.7 2.4 0.9 1.9 2.6 3.6 4.3 4.5 4.4 5.0 5.0 4.9 4.9
6.4 6.3 6.4 6.3 6.3 5.9 5.5 5.4 5.2 4.9 4.6 4.6 4.7 4.6 4.4 4.3 4.3 4.2 4.3 4.2 4.0 3.7 3.5 3.5 3.4 3.8 3.7 3.5 3.4 3.3 3.3 2.9 2.6 0.4 0.9 1.6 2.3 3.5 4.4 4.6 5.3 5.1 4.8 4.7 5.0
6.4 6.3 6.4 6.3 6.0 5.9 5.7 5.3 5.1 4.8 4.6 4.6 4.6 4.5 4.4 4.3 4.2 3.9 4.1 3.9 4.0 4.1 3.6 3.2 2.9 3.6 3.5 3.3 3.4 3.1 3.1 2.9 2.7 2.9 1.0 1.4 2.2 4.1 4.2 4.8 5.0 5.0 4.9 4.9 4.7
6.3 6.3 6.4 6.3 6.1 5.7 5.7 5.5 5.3 4.9 4.8 4.7 4.6 4.6 4.5 4.4 4.2 4.0 4.4 4.1 4.0 3.9 3.5 3.2 2.8 2.7 3.9 3.0 2.7 2.8 3.0 2.9 2.8 2.4 2.3 2.7 2.3 4.3 3.7 4.9 5.0 5.0 5.0 5.3 5.5
6.3 6.4 6.4 6.2 5.9 5.8 5.5 5.2 5.0 4.9 4.9 4.8 4.7 4.6 4.6 4.7 4.6 4.5 4.5 4.5 3.9 3.6 3.6 3.5 2.8 2.4 3.3 3.3 3.4 3.1 3.2 3.2 2.7 2.5 2.4 2.5 3.3 4.6 4.7 5.2 5.2 5.1 5.2 5.4 5.4
6.0 6.2 6.4 6.3 6.1 5.7 5.4 5.1 4.8 4.8 4.8 4.8 4.7 4.8 4.8 5.1 5.0 4.9 4.9 4.4 4.0 3.5 3.1 2.9 2.8 2.8 3.0 3.9 3.3 2.7 2.7 3.1 2.9 2.6 2.6 2.9 2.8 4.1 4.3 4.8 5.0 5.2 5.6 5.7 5.9
5.8 6.4 6.6 6.1 6.0 5.7 5.4 5.3 4.9 4.8 4.7 4.7 4.8 4.8 5.0 4.8 4.9 4.9 4.8 4.6 4.2 3.8 3.3 2.7 2.7 2.6 2.7 2.7 2.4 2.2 2.5 2.6 2.6 3.2 2.6 2.7 3.2 4.7 4.8 4.9 5.2 5.4 5.8 5.8 6.1
5.9 6.6 6.8 6.3 5.7 5.1 4.8 5.0 4.8 4.9 4.7 4.9 5.0 4.7 4.9 5.3 4.8 4.6 4.4 4.0 4.5 4.2 3.6 3.2 2.8 2.5 2.1 2.6 2.4 2.0 2.6 2.7 2.7 2.9 2.6 3.2 3.5 4.9 5.0 5.2 5.1 5.6 5.9 5.9 6.2
6.2 6.7 6.5 5.7 5.8 5.2 5.6 5.6 5.2 4.6 4.6 4.7 4.9 4.8 4.7 4.9 4.9 4.9 4.6 4.4 3.6 3.5 3.3 3.0 2.8 2.6 2.2 2.6 2.2 1.9 3.7 3.3 3.4 3.2 3.4 3.8 4.4 4.8 5.0 5.2 5.6 5.9 6.2 6.4 6.5
Wind_Speed
14 15 16 16 16 17 15 12 12 9 4 6 6 7 7 6 5 1 3 2 2 5 7 5 4 7 4 3 1 2 3 2 3 2 4 6 6 1 4 2 4 1 4 7 13
14 16 16 16 15 15 16 15 12 11 10 7 5 7 6 6 1 10 8 7 5 5 5 4 5 6 3 3 3 3 3 6 2 2 2 3 3 4 6 8 4 7 10 10 12
15 15 16 16 16 16 15 14 13 11 9 8 7 6 4 4 2 4 10 9 9 6 8 3 4 3 3 2 3 1 4 3 1 2 2 3 5 3 1 4 7 9 10 11 10
16 17 17 17 16 15 15 14 11 9 9 8 7 5 6 1 3 2 7 10 11 9 5 4 5 3 2 1 2 1 3 2 5 5 5 5 4 5 4 9 8 10 10 8 10
16 17 18 18 17 15 15 14 10 8 8 7 2 3 0 5 3 3 5 9 9 5 2 2 4 2 1 2 4 0 3 5 7 9 7 4 9 6 7 12 10 9 8 8 8
16 17 18 19 18 15 15 13 10 8 7 7 4 2 2 5 5 3 2 4 4 4 3 4 2 2 1 1 1 2 4 7 6 7 5 3 7 2 7 7 9 8 7 7 9
17 18 19 20 17 15 15 11 9 8 7 5 6 1 7 4 4 5 3 2 2 3 3 2 2 4 1 2 3 3 5 6 3 3 5 5 5 7 8 6 7 7 2 1 3
16 18 20 20 18 17 16 10 8 8 7 5 6 3 3 2 4 4 3 2 4 4 3 2 4 2 2 1 5 2 2 4 4 6 5 4 8 7 9 4 9 4 6 7 2
16 17 19 21 19 19 19 11 5 7 7 7 3 4 2 2 2 2 2 2 0 1 1 3 3 2 3 3 4 3 1 3 7 5 4 5 10 11 10 5 8 7 6 2 4
15 16 18 20 21 21 18 1 2 7 3 1 2 4 2 2 1 1 2 3 2 0 3 3 4 3 3 4 1 2 3 4 6 5 7 10 15 11 9 5 9 5 6 2 4
14 15 16 19 19 22 5 3 4 4 7 2 2 4 2 1 2 1 1 2 2 4 2 1 4 3 6 7 4 2 4 6 6 10 5 6 11 16 16 9 6 7 7 3 1
14 15 16 16 13 19 4 5 2 1 3 3 2 3 1 2 1 2 1 2 1 2 1 3 5 7 5 5 3 2 5 7 7 3 7 8 16 20 12 6 6 9 7 4 1
13 15 17 15 6 6 6 4 1 4 3 0 1 1 1 1 0 3 3 0 2 2 1 4 5 2 5 2 3 2 5 4 6 5 4 8 8 6 8 2 4 5 4 3 3
10 13 18 17 4 1 3 3 2 1 4 1 1 1 1 1 1 2 4 2 2 2 5 4 4 3 2 3 1 4 3 3 6 7 3 6 5 8 10 6 3 6 3 4 4
7 11 15 8 1 3 2 4 1 2 3 2 2 2 1 1 1 2 0 3 2 2 4 5 2 1 2 4 2 6 3 5 4 3 3 4 1 7 5 4 6 5 2 1 5
5 7 9 5 2 1 4 2 2 5 3 1 2 1 1 2 1 2 2 3 1 2 3 7 4 3 6 2 1 4 4 5 3 3 2 5 2 5 3 4 3 1 4 5 7
2 4 3 1 1 3 2 3 4 5 2 4 2 3 1 2 2 3 2 1 1 4 4 5 3 3 2 2 3 7 7 4 6 4 5 4 4 7 2 2 6 3 5 7 7
2 0 1 1 1 3 3 4 3 3 4 2 1 1 3 1 1 2 1 2 3 3 2 2 6 1 1 2 1 2 4 4 4 3 5 6 6 5 7 4 5 1 5 7 8
4 1 1 1 1 3 4 3 6 5 2 1 0 2 2 1 3 3 2 3 2 5 6 2 5 4 2 1 5 2 0 2 1 2 2 4 6 8 7 3 5 6 5 7 8
3 2 1 2 2 3 4 4 4 2 3 1 3 2 3 3 0 1 2 3 4 2 3 3 5 1 4 2 1 4 5 2 3 3 5 5 5 9 5 6 8 10 8 9 8
3 2 2 2 3 4 3 5 3 2 2 3 4 2 2 2 4 4 4 3 3 3 5 4 4 5 2 4 5 2 1 3 3 4 4 5 5 6 5 6 7 11 9 8 10
3 1 2 2 3 1 3 5 4 4 1 1 2 3 4 4 3 3 5 5 4 6 5 3 4 3 10 3 4 2 6 5 4 5 3 2 13 11 9 4 11 14 11 10 9
4 3 1 3 3 3 3 1 3 4 4 4 4 4 3 4 1 6 4 2 7 6 6 5 0 3 7 5 4 2 4 4 3 2 11 6 8 2 16 22 17 11 11 13 11
3 3 0 2 1 5 5 4 4 2 3 3 3 3 3 3 4 3 3 2 6 6 9 7 5 8 7 6 4 1 4 6 5 4 19 17 27 23 20 20 17 16 14 11 8
2 5 4 4 5 4 3 6 6 6 3 5 1 7 7 4 3 5 5 3 3 6 4 7 5 6 11 13 9 11 14 14 13 20 14 31 24 25 23 18 15 10 11 11 8
4 4 2 3 4 7 5 7 9 4 7 5 6 7 8 7 9 8 5 2 6 2 5 2 5 2 5 12 15 19 22 20 21 21 17 23 27 23 13 6 7 10 10 9 7
2 2 4 5 5 6 6 8 11 8 7 5 11 5 8 15 7 4 5 5 6 7 5 4 3 3 5 3 8 13 20 18 7 6 8 9 10 2 3 6 6 8 7 5 3
Wind_Direction
358 358 357 358 359 359 359 359 344 335 326 323 16 9 4 328 315 144 45 260 64 342 342 320 45 359 20 352 120 80 64 233 245 65 302 3 21 16 255 266 296 258 231 248 292
360 1 1 359 358 359 354 355 352 358 359 16 7 348 335 329 49 63 47 58 29 4 9 36 17 7 18 8 14 91 143 219 114 122 317 305 358 302 348 342 308 324 308 306 313
360 359 360 358 355 352 352 347 344 349 344 341 336 341 321 331 136 50 21 22 22 11 58 72 46 43 51 40 10 41 207 353 317 317 40 290 312 328 321 305 257 278 281 284 291
357 357 356 355 353 350 348 346 342 340 347 343 335 334 317 157 83 261 356 17 13 29 53 40 29 49 65 359 351 355 291 317 295 343 329 315 296 300 221 241 248 264 263 281 290
356 353 352 352 351 349 349 348 347 350 356 353 34 349 6 52 46 245 320 329 349 16 55 70 40 20 42 347 7 205 306 324 312 301 277 262 256 229 249 261 274 274 302 326 334
355 352 351 350 347 348 352 351 357 356 4 17 74 7 64 81 268 230 284 359 36 38 16 58 95 242 67 350 142 325 285 285 287 274 251 237 268 113 260 258 300 348 358 39 44
353 350 349 349 347 349 354 353 352 351 349 15 15 32 62 155 323 336 305 48 54 57 86 45 76 79 10 350 348 349 331 320 230 274 255 178 285 224 258 309 311 345 35 159 247
351 349 347 348 347 346 346 350 345 339 326 344 350 65 91 310 335 46 39 36 59 61 88 63 53 91 97 315 8 30 42 349 286 350 307 71 273 269 290 331 310 278 269 246 63
348 348 345 346 346 345 334 326 331 320 309 320 24 96 76 312 77 320 81 109 204 79 327 77 57 77 39 62 21 21 259 261 313 299 257 48 278 264 302 307 291 237 248 270 20
347 347 346 348 345 346 335 202 313 331 325 241 282 59 293 182 161 8 332 99 69 4 22 45 45 53 36 67 226 284 304 275 266 277 309 297 270 277 280 291 286 217 247 47 28
344 346 350 349 350 347 20 28 27 3 36 88 279 95 93 286 95 281 254 46 45 61 60 129 54 278 238 204 216 224 247 260 264 281 307 266 286 290 294 295 284 203 224 182 16
341 343 349 349 353 357 57 72 88 244 82 335 103 90 125 152 104 212 32 74 98 289 58 31 239 239 214 185 214 253 278 276 285 257 319 294 291 281 293 255 217 185 206 184 35
336 339 341 345 346 41 69 91 41 133 90 349 311 118 207 106 234 215 141 136 257 294 235 180 241 308 195 215 286 264 246 263 262 312 262 350 302 328 296 270 145 198 209 111 43
333 338 338 339 77 135 48 316 26 82 86 289 250 260 214 197 39 147 208 128 335 283 332 239 277 162 182 241 212 300 220 269 310 357 313 67 285 310 304 334 222 237 28 52 2
335 340 348 35 167 63 296 317 140 65 51 226 206 158 304 239 150 234 28 70 220 268 66 262 277 269 299 232 148 246 324 289 270 262 360 345 80 265 297 343 248 24 130 335 286
325 346 358 16 48 51 339 18 44 45 255 228 154 241 278 196 249 105 40 34 201 310 226 249 277 229 214 145 178 308 341 330 42 106 26 226 90 274 296 319 27 96 218 276 293
276 344 29 95 153 350 20 49 25 117 173 192 219 176 246 225 242 170 190 331 167 16 346 321 287 300 106 74 13 50 42 339 355 5 230 221 322 251 293 141 167 234 273 275 278
209 339 26 145 76 55 64 54 86 218 209 77 129 222 223 67 25 319 278 287 237 121 78 83 331 344 126 152 161 35 134 145 267 266 269 289 246 252 177 260 131 321 305 317 307
134 19 63 249 23 82 80 62 200 215 180 119 15 133 164 155 132 355 210 219 239 165 168 99 263 322 34 58 118 191 207 188 273 269 19 245 288 296 205 355 343 350 347 308 292
116 111 237 168 109 79 82 234 185 157 125 113 175 159 198 208 197 51 236 223 156 99 117 171 327 314 303 353 269 156 158 27 10 328 289 262 245 232 301 325 327 350 312 292 282
88 72 255 83 73 51 159 213 163 131 132 154 204 200 185 215 163 212 231 286 131 104 85 128 129 285 347 193 191 58 204 53 132 160 214 298 245 203 218 291 325 321 283 277 305
126 112 260 90 63 301 188 188 155 159 124 120 115 192 205 192 204 237 232 214 135 146 157 182 149 246 239 287 293 166 216 164 154 260 239 263 277 277 269 267 302 307 291 288 298
152 157 53 104 161 208 278 226 177 136 184 170 211 202 187 212 359 205 220 256 159 152 166 170 214 346 328 3 359 158 197 164 116 78 223 249 260 282 319 318 307 299 292 294 308
114 152 123 67 232 159 161 207 203 213 168 165 194 139 138 231 233 245 235 245 197 181 169 160 187 182 213 207 143 205 246 217 173 221 280 242 277 287 290 294 306 305 298 291 271
179 213 176 179 228 187 135 165 158 186 190 176 285 208 171 193 226 233 227 266 235 218 234 171 235 209 244 260 247 240 244 236 233 251 247 282 278 282 284 296 296 291 293 293 249
158 159 15 172 125 132 192 218 187 173 154 230 212 195 182 183 194 187 175 179 229 4 170 330 261 261 261 243 244 258 257 252 244 247 254 261 272 273 284 304 295 293 295 282 256
161 355 122 162 151 141 198 191 201 145 227 212 209 152 203 231 219 225 216 203 211 170 186 154 160 15 278 348 307 280 251 240 222 228 206 246 261 318 307 300 302 315 326 337 328